sat.trackr.live / text

‹ back to catalog

STARLINK-35200

NORAD 65855 · 2025-223B

PAYLOAD ACTIVE UNKNOWN

§ Identity

Operator
Country
US
Launch date
2025-10-03
Launch site
AFWTR
Launch vehicle
Mass (kg)
RCS (m²)

Purposes: comms

External: N2YO · Heavens-Above · Gunter

§ Orbital elements

Epoch: 2026-05-25T03:56:00.659328Z

Period
94.10 min
Inclination
53.1603°
Eccentricity
0.0001014
Mean motion
15.30212976 rev/d
Perigee alt
474.5 km
Apogee alt
475.9 km
Semi-major
6,853.3 km
B*
8.8808e-4
RAAN
298.9968°
Arg perigee
74.4736°
Mean anomaly
285.6377°
Rev number
3,591

§ Raw data

STARLINK-352001 65855U 25223B   26145.16389652  .00026046  00000+0  88808-3 0  99932 65855  53.1603 298.9968 0001014  74.4736 285.6377 15.30212976 35919

JSON: /api/v1/satellites/65855 · /tle

For live sub-satellite position, see the globe view (requires WebGL).

§ Visibility from observer

Set your observer location to see the next 7 days of passes ≥ 10°. The values pass through the URL so the page stays shareable.

No JS? Fill the form by hand. The geolocation button needs JavaScript.